Weather History for Granbury, TX

Change the Weather History Date:

Thursday, September 26, 2013

  Actual Average (KSEP) Record (KSEP)
Temperature  
Mean Temperature 81 °F -  
Max Temperature 93 °F 81 °F 106 °F (1977)
Min Temperature 69 °F 58 °F 44 °F (1975)
Cooling Degree Days 16    
Growing Degree Days 31 (Base 50)    
Moisture  
Dew Point 55 °F    
Average Humidity 42    
Maximum Humidity 69    
Minimum Humidity 25    
Precipitation  
Precipitation 0.00 in - - ()
Sea Level Pressure  
Sea Level Pressure 29.85 in    
Wind  
Wind Speed 6 mph (SE)    
Max Wind Speed 15 mph    
Max Gust Speed 22 mph    
Visibility 10 miles    
Events      
Averages and records for this station are not official NWS values.
T = Trace of Precipitation, MM = Missing Value Source: NWS Daily Summary

Daily Weather History Graph

Daily Weather History Graph

Search for Another Location

Airport:

Trip Planner

Search our weather history database for the weather conditions in past years. The results will help you decide how hot, cold, wet, or windy it might be!

Date:

Astronomy

Sep. 26, 2013 Rise Set
Actual Time 7:22 AM CDT 7:22 PM CDT
Civil Twilight 6:57 AM CDT 7:46 PM CDT
Nautical Twilight 6:29 AM CDT 8:15 PM CDT
Astronomical Twilight 6:00 AM CDT 8:43 PM CDT
Moon No Moon Rise 1:58 PM CDT (9/26)
Length of Visible Light 12h 48m
Length of Day
11h 59m
Waning Gibbous, 54% of the Moon is Illuminated
Sep 26
Waning Gibbous
Sep 26
Last Quarter
Oct 4
New
Oct 11
First Quarter
Oct 18
Full

Hourly Weather History & Observations

Time (CDT) Temp. Heat Index Dew Point Humidity Pressure Visibility Wind Dir Wind Speed Gust Speed Precip Events Conditions
12:15 AM 77.7 °F - 57.4 °F 49% 29.82 in 10.0 mi SE 4.6 mph - N/A   Scattered Clouds
12:35 AM 76.6 °F - 57.4 °F 51% 29.82 in 10.0 mi SE 5.8 mph - N/A   Clear
12:55 AM 77.0 °F - 55.4 °F 47% 29.81 in 10.0 mi SE 5.8 mph - N/A   Clear
1:15 AM 78.1 °F - 53.4 °F 42% 29.82 in 10.0 mi SE 4.6 mph - N/A   Clear
1:35 AM 77.9 °F - 53.1 °F 42% 29.82 in 10.0 mi SE 3.5 mph - N/A   Clear
1:55 AM 76.5 °F - 54.3 °F 46% 29.82 in 10.0 mi ESE 4.6 mph - N/A   Clear
2:15 AM 75.2 °F - 55.2 °F 50% 29.82 in 10.0 mi East 3.5 mph - N/A   Clear
2:35 AM 73.8 °F - 56.7 °F 55% 29.81 in 10.0 mi East 4.6 mph - N/A   Clear
2:55 AM 73.6 °F - 56.3 °F 55% 29.81 in 10.0 mi East 4.6 mph - N/A   Clear
3:15 AM 73.6 °F - 55.6 °F 53% 29.81 in 10.0 mi ESE 5.8 mph - N/A   Clear
3:35 AM 73.4 °F - 55.0 °F 52% 29.81 in 10.0 mi East 5.8 mph - N/A   Clear
3:55 AM 73.0 °F - 55.2 °F 53% 29.82 in 10.0 mi ESE 5.8 mph - N/A   Clear
4:15 AM 72.5 °F - 55.4 °F 55% 29.82 in 10.0 mi ESE 3.5 mph - N/A   Clear
4:35 AM 72.0 °F - 55.6 °F 56% 29.81 in 10.0 mi ESE 3.5 mph - N/A   Clear
4:55 AM 72.1 °F - 55.0 °F 55% 29.81 in 10.0 mi East 5.8 mph - N/A   Clear
5:15 AM 71.8 °F - 55.0 °F 55% 29.81 in 10.0 mi ESE 6.9 mph - N/A   Clear
5:35 AM 71.4 °F - 55.6 °F 57% 29.82 in 10.0 mi ESE 5.8 mph - N/A   Clear
5:55 AM 70.9 °F - 56.3 °F 60% 29.82 in 10.0 mi East 4.6 mph - N/A   Clear
6:15 AM 70.7 °F - 56.7 °F 61% 29.82 in 10.0 mi East 4.6 mph - N/A   Clear
6:35 AM 70.7 °F - 56.8 °F 61% 29.84 in 10.0 mi Calm Calm - N/A   Clear
6:55 AM 70.2 °F - 57.2 °F 63% 29.85 in 10.0 mi Calm Calm - N/A   Clear
7:15 AM 69.8 °F - 57.4 °F 65% 29.85 in 10.0 mi Calm Calm - N/A   Clear
7:35 AM 69.6 °F - 57.7 °F 66% 29.86 in 10.0 mi Calm Calm - N/A   Clear
7:55 AM 69.6 °F - 58.3 °F 67% 29.87 in 10.0 mi Calm Calm - N/A   Clear
8:15 AM 70.2 °F - 59.7 °F 69% 29.87 in 10.0 mi Calm Calm - N/A   Clear
8:35 AM 73.0 °F - 59.7 °F 63% 29.88 in 10.0 mi Calm Calm - N/A   Clear
8:55 AM 75.2 °F - 60.3 °F 60% 29.88 in 10.0 mi Calm Calm - N/A   Clear
9:15 AM 77.4 °F - 60.4 °F 56% 29.89 in 10.0 mi SE 3.5 mph - N/A   Clear
9:35 AM 80.4 °F 80.8 °F 58.1 °F 46% 29.89 in 10.0 mi South 8.1 mph - N/A   Clear
9:55 AM 81.9 °F 82.1 °F 59.0 °F 46% 29.90 in 10.0 mi SSE 8.1 mph - N/A   Clear
10:15 AM 84.9 °F 83.6 °F 55.2 °F 36% 29.90 in 10.0 mi South 8.1 mph - N/A   Clear
10:35 AM 86.2 °F 84.4 °F 53.8 °F 33% 29.90 in 10.0 mi South 9.2 mph 17.3 mph N/A   Clear
10:55 AM 87.4 °F 85.5 °F 54.5 °F 32% 29.90 in 10.0 mi South 10.4 mph - N/A   Clear
11:15 AM 88.5 °F 86.5 °F 54.5 °F 31% 29.90 in 10.0 mi South 13.8 mph 18.4 mph N/A   Clear
11:35 AM 89.1 °F 87.1 °F 54.9 °F 31% 29.90 in 10.0 mi SSE 11.5 mph 18.4 mph N/A   Clear
11:55 AM 90.3 °F 88.5 °F 55.4 °F 31% 29.90 in 10.0 mi SSW 13.8 mph 18.4 mph N/A   Clear
12:15 PM 90.7 °F 88.7 °F 55.6 °F 30% 29.90 in 10.0 mi South 15.0 mph 21.9 mph N/A   Clear
12:35 PM 91.2 °F 89.4 °F 55.9 °F 30% 29.89 in 10.0 mi South 13.8 mph 19.6 mph N/A   Clear
12:55 PM 91.4 °F 89.4 °F 55.0 °F 29% 29.89 in 10.0 mi SSE 13.8 mph 21.9 mph N/A   Clear
1:15 PM 91.6 °F 89.6 °F 55.4 °F 29% 29.88 in 10.0 mi SE 12.7 mph 18.4 mph N/A   Clear
1:35 PM 91.8 °F 89.8 °F 55.6 °F 29% 29.87 in 10.0 mi SE 9.2 mph 20.7 mph N/A   Clear
1:55 PM 92.1 °F 90.2 °F 55.9 °F 29% 29.87 in 10.0 mi SE 15.0 mph 20.7 mph N/A   Clear
2:15 PM 92.3 °F 90.2 °F 55.2 °F 28% 29.86 in 10.0 mi SE 12.7 mph 18.4 mph N/A   Clear
2:35 PM 92.3 °F 90.2 °F 55.0 °F 28% 29.85 in 10.0 mi SSE 13.8 mph 18.4 mph N/A   Clear
2:55 PM 93.0 °F 90.8 °F 54.0 °F 27% 29.85 in 10.0 mi SE 12.7 mph 18.4 mph N/A   Clear
3:15 PM 92.8 °F 90.4 °F 53.4 °F 26% 29.84 in 10.0 mi ESE 11.5 mph 18.4 mph N/A   Clear
3:35 PM 92.8 °F 90.4 °F 53.1 °F 26% 29.85 in 10.0 mi SSE 12.7 mph 21.9 mph N/A   Clear
3:55 PM 92.5 °F - 51.8 °F 25% 29.84 in 10.0 mi SE 15.0 mph - N/A   Clear
4:15 PM 92.3 °F - 51.8 °F 25% 29.84 in 10.0 mi SSE 13.8 mph 20.7 mph N/A   Clear
4:35 PM 92.3 °F - 52.5 °F 26% 29.84 in 10.0 mi SE 10.4 mph 18.4 mph N/A   Clear
4:55 PM 92.3 °F - 52.3 °F 26% 29.84 in 10.0 mi SSE 15.0 mph - N/A   Clear
5:15 PM 91.8 °F - 52.7 °F 26% 29.84 in 10.0 mi SSE 13.8 mph 17.3 mph N/A   Clear
5:35 PM 91.6 °F - 52.9 °F 27% 29.83 in 10.0 mi SE 15.0 mph - N/A   Clear
5:55 PM 91.0 °F - 52.9 °F 27% 29.84 in 10.0 mi SE 12.7 mph 18.4 mph N/A   Clear
6:15 PM 90.5 °F - 51.8 °F 27% 29.84 in 10.0 mi SE 11.5 mph 17.3 mph N/A   Clear
6:35 PM 89.6 °F - 51.1 °F 27% 29.84 in 10.0 mi SE 9.2 mph - N/A   Clear
6:55 PM 88.7 °F - 51.6 °F 28% 29.85 in 10.0 mi SE 8.1 mph - N/A   Clear
7:15 PM 86.7 °F - 50.9 °F 29% 29.85 in 10.0 mi SE 5.8 mph - N/A   Clear
7:35 PM 84.9 °F - 50.2 °F 30% 29.85 in 10.0 mi SE 5.8 mph - N/A   Clear
7:55 PM 82.0 °F - 51.1 °F 34% 29.84 in 10.0 mi ESE 4.6 mph - N/A   Clear
8:15 PM 81.7 °F - 51.3 °F 35% 29.84 in 10.0 mi SE 4.6 mph - N/A   Clear
8:35 PM 80.4 °F - 51.4 °F 36% 29.85 in 10.0 mi SE 3.5 mph - N/A   Clear
8:55 PM 78.1 °F - 52.7 °F 41% 29.86 in 10.0 mi ESE 4.6 mph - N/A   Clear
9:15 PM 78.1 °F - 52.7 °F 41% 29.86 in 10.0 mi ESE 3.5 mph - N/A   Clear
9:35 PM 77.7 °F - 52.7 °F 42% 29.86 in 10.0 mi ESE 4.6 mph - N/A   Clear
9:55 PM 76.8 °F - 53.6 °F 44% 29.87 in 10.0 mi ESE 4.6 mph - N/A   Clear
10:15 PM 76.6 °F - 54.7 °F 46% 29.87 in 10.0 mi Calm Calm - N/A   Clear
10:35 PM 75.4 °F - 55.8 °F 50% 29.88 in 10.0 mi Calm Calm - N/A   Clear
10:55 PM 76.6 °F - 55.8 °F 48% 29.88 in 10.0 mi SE 3.5 mph - N/A   Clear
11:15 PM 76.5 °F - 56.3 °F 50% 29.88 in 10.0 mi SE 3.5 mph - N/A   Clear
11:35 PM 75.7 °F - 57.4 °F 53% 29.89 in 10.0 mi ESE 3.5 mph - N/A   Clear
11:55 PM 75.0 °F - 57.6 °F 54% 29.89 in 10.0 mi Calm Calm - N/A   Clear